,

(GMT )
Al Udeid

Weather History for KQIR - October, 2011

Change the Weather History Date:

Wednesday, October 19, 2011

  Actual Average Record
Temperature  
Mean Temperature 84 °F -  
Max Temperature 99 °F - - ()
Min Temperature 70 °F - - ()
Cooling Degree Days 20    
Growing Degree Days 34 (Base 50)    
Moisture  
Dew Point 60 °F    
Average Humidity 56    
Maximum Humidity 97    
Minimum Humidity 10    
Precipitation  
Precipitation 0.00 in - - ()
Sea Level Pressure  
Sea Level Pressure 29.86 in    
Wind  
Wind Speed 6 mph ()    
Max Wind Speed 13 mph    
Max Gust Speed 17 mph    
Visibility 6.2 miles    
Events      
Averages and records for this station are not official NWS values.
T = Trace of Precipitation, MM = Missing Value Source: Averaged Metar Reports

Daily Weather History Graph

Daily Weather History Graph

Search for Another Location

Airport or City:

Trip Planner

Search our weather history database for the weather conditions in past years. The results will help you decide how hot, cold, wet, or windy it might be!

Date:

Astronomy

Oct. 19, 2011 Rise Set
Actual Time 5:34 AM +03 5:04 PM +03
Civil Twilight 5:11 AM +03 5:27 PM +03
Nautical Twilight 4:44 AM +03 5:54 PM +03
Astronomical Twilight 4:18 AM +03 6:20 PM +03
Moon 10:40 PM +03 (10/19) 11:32 AM +03 (10/19)
Length of Visible Light 12h 16m
Length of Day
11h 29m
Waning Gibbous, 58% of the Moon is Illuminated
Oct 19
Waning Gibbous
Oct 20
Last Quarter
Oct 26
New
Nov 2
First Quarter
Nov 10
Full

Hourly Weather History & Observations

Time (+03) Temp. Heat Index Dew Point Humidity Pressure Visibility Wind Dir Wind Speed Gust Speed Precip Events Conditions
12:55 AM 76.3 °F - 69.8 °F 80% 29.87 in 6.2 mi NW 6.9 mph - N/A   Clear
1:55 AM 74.7 °F - 69.8 °F 85% 29.86 in 6.2 mi WNW 5.8 mph - N/A   Clear
2:55 AM 73.4 °F - 71.1 °F 92% 29.86 in 6.2 mi WNW 4.6 mph - N/A   Clear
3:55 AM 72.9 °F - 71.6 °F 96% 29.85 in 6.2 mi WNW 6.9 mph - N/A   Clear
4:55 AM 72.0 °F - 71.1 °F 97% 29.86 in 6.2 mi WNW 3.5 mph - N/A   Clear
5:55 AM 70.7 °F - 69.8 °F 97% 29.88 in 5.6 mi WNW 6.9 mph - N/A   Clear
6:55 AM 75.0 °F - 70.5 °F 86% 29.90 in 6.2 mi NW 3.5 mph - N/A   Clear
7:55 AM 81.3 °F 87.4 °F 74.8 °F 81% 29.91 in 6.2 mi NW 5.8 mph - N/A   Clear
8:55 AM 86.7 °F 93.3 °F 72.3 °F 62% 29.92 in 6.2 mi NW 5.8 mph - N/A   Clear
9:55 AM 91.9 °F 94.1 °F 65.1 °F 41% 29.92 in 6.2 mi NW 6.9 mph - N/A   Clear
10:55 AM 95.7 °F 93.4 °F 54.0 °F 24% 29.90 in 6.2 mi NW 6.9 mph - N/A   Clear
11:55 AM 99.0 °F - 43.9 °F 15% 29.87 in 6.2 mi NW 6.9 mph - N/A   Clear
12:55 PM 99.5 °F - 39.2 °F 12% 29.85 in 6.2 mi WNW 10.4 mph - N/A   Clear
1:55 PM 99.9 °F - 34.7 °F 10% 29.83 in 6.2 mi NNW 10.4 mph 17.3 mph N/A   Clear
2:55 PM 99.1 °F - 36.1 °F 11% 29.83 in 6.2 mi NW 12.7 mph - N/A   Clear
3:55 PM 97.5 °F - 36.7 °F 12% 29.83 in 6.2 mi WNW 11.5 mph - N/A   Clear
4:55 PM 93.6 °F - 38.5 °F 15% 29.83 in 6.2 mi NNW 9.2 mph - N/A   Clear
5:55 PM 89.1 °F - 39.6 °F 18% 29.84 in 6.2 mi NNW 4.6 mph - N/A   Clear
6:55 PM 85.8 °F 91.8 °F 71.8 °F 63% 29.85 in 6.2 mi ESE 5.8 mph - N/A   Clear
7:55 PM 84.0 °F 90.2 °F 73.0 °F 69% 29.86 in 6.2 mi ESE 3.5 mph - N/A   Clear
8:55 PM 80.1 °F 83.2 °F 69.8 °F 71% 29.85 in 6.2 mi Calm Calm - N/A   Clear
9:55 PM 77.2 °F - 65.5 °F 67% 29.85 in 6.2 mi WSW 3.5 mph - N/A   Clear
10:55 PM 76.1 °F - 64.4 °F 67% 29.83 in 6.2 mi WSW 5.8 mph - N/A   Clear
11:55 PM 74.5 °F - 63.9 °F 69% 29.82 in 6.2 mi West 6.9 mph - N/A   Clear